Tracking 19644 objects as of 24-Apr-2019
HD Live streaming from Space Station
objects crossing your sky now

PSLV R/B

Track PSLV R/B now!
10-day predictions


NORAD ID: 23828
Int'l Code: 1996-017B
Perigee: 802.3 km
Apogee: 849.6 km
Inclination: 98.8 °
Period: 101.3 minutes
Semi major axis: 7196 km
RCS: 6.5184 m2 (large)
Launch date: March 21, 1996
Source: India (IND)
Launch site: SRIHARIKOTA (SRI)

Note: This is a ROCKET BODY
aabbcc
Your satellite tracking list
Your tracking list is empty




NASA's NSSDC Master Catalog

Two Line Element Set (TLE):
1 23828U 96017B   19113.80505489 -.00000007  00000-0  16826-4 0  9995
2 23828  98.7825  56.6726 0032850 292.5591  67.2112 14.21941975197938
Source of the keplerian elements: AFSPC